OneWeb SL0228

operational
NORAD ID: 48780 Int'l Des: 2021-045 Owner: ONEWEBN Country: UK Constellation: oneweb
LEOCIRCULARPOLARONEWEB_TYPE

OneWeb SL0228について

説明を読み込み中...

リアルタイム位置

3D地球を読み込み中...

次回通過

高度履歴

Altitude vs Time

uPlot chart will show altitude changes over time

軌道要素

1 48780U 21045P 25306.44432809 .00000231 00000-0 58044-3 0 9999
2 48780 87.8965 304.4148 0001937 94.4951 265.6401 13.15549766214512
Epoch: Nov 2, 2025 • Age: 31 hours

現在のステータス

高度 1231.9 km
速度 7.24 km/s
衛星直下点 -84.67°S, 21.09°W
打ち上げ日 May 28, 2021
運用期間 4.4 years
タイプ internet

技術仕様

分類 Payload
質量 148.00 kg
乾燥質量 140.00 kg
総質量 148.00 kg
長さ 1.30 m
直径 1.00 m
スパン 5.00 m
形状 Trapezoid+2 pan
製造者 ONEWUS
バスタイプ ARROW
フェーズステータス In Orbit
所有者/国 ONEWEBN/UK

大規模コンステレーション

Loading constellations...